Dewpoint
67 63 64 68 61 58 51 52 50 49 48 46 47 45 43 45 45 56 66 62 61 64 69 72 75 74 74 74 73 73 71 71 71 71 70 71 71 71 71 72 73 73 74 73 73 74 73 73 74
63 59 67 65 55 50 49 48 48 48 47 48 48 45 44 43 53 62 63 60 60 64 66 72 75 75 74 74 73 72 70 69 69 69 68 69 69 69 70 70 71 72 72 73 73 73 73 73 73
60 58 62 59 52 47 49 48 48 48 47 48 47 47 46 48 47 61 63 61 59 62 67 73 76 75 75 73 72 71 69 69 68 67 67 68 68 69 69 69 69 69 71 72 72 73 74 73 73
60 62 56 51 47 49 51 46 47 49 49 50 45 42 46 49 49 56 62 61 59 62 70 76 76 76 74 73 72 70 69 69 68 67 67 67 66 66 66 68 67 67 69 69 70 71 71 73 73
59 59 53 49 46 44 45 44 47 46 48 47 46 44 46 50 56 60 61 61 61 63 69 73 76 75 73 72 71 70 70 70 69 66 66 66 66 66 65 65 66 65 66 68 68 69 70 73 73
55 52 44 40 37 35 35 45 42 44 44 45 44 44 47 51 55 59 60 60 61 62 67 70 75 74 73 72 70 70 69 68 67 66 66 66 65 64 64 64 64 64 64 64 65 67 69 70 73
55 50 43 40 38 36 34 39 41 41 40 41 45 46 45 49 55 59 59 59 60 61 62 68 72 73 74 72 71 71 70 68 67 66 65 66 65 64 63 63 63 62 62 62 63 64 66 68 70
54 50 40 39 37 37 36 36 44 37 37 38 45 44 40 47 53 58 57 57 58 57 58 63 68 71 69 68 72 71 69 68 67 65 65 65 64 62 62 61 61 60 60 59 59 60 61 63 64
56 43 35 32 34 38 34 30 31 35 39 36 34 43 42 48 50 55 55 55 55 53 54 53 65 67 67 66 69 70 68 67 65 64 64 63 59 58 58 59 59 58 57 56 54 52 50 56 58
45 42 37 32 33 33 33 30 31 27 31 30 29 34 42 46 48 52 54 55 53 53 53 53 61 65 64 63 66 64 64 62 60 59 59 58 54 56 56 57 57 55 51 49 47 44 46 50 50
41 38 36 30 32 31 32 30 28 27 30 33 32 28 37 43 48 51 52 53 52 52 54 53 52 62 62 61 64 60 58 57 54 51 51 48 52 53 52 53 49 47 49 47 47 42 41 38 41
35 32 28 33 32 32 31 30 28 29 30 30 28 29 31 41 42 49 51 51 50 51 54 54 54 54 58 61 61 57 53 52 47 45 41 46 48 46 47 48 47 43 43 36 37 38 39 36 29
27 28 28 31 32 31 31 31 31 30 30 28 27 28 30 35 35 41 48 50 49 49 53 55 54 53 53 57 57 56 51 46 41 39 39 44 44 41 41 41 42 42 38 37 36 36 33 29 27
30 30 29 26 26 27 26 29 30 29 28 26 26 27 27 27 35 34 39 41 46 47 50 54 55 55 53 53 56 55 51 42 40 42 41 41 44 41 41 40 41 40 38 37 36 34 33 31 30
32 26 27 26 23 28 30 27 26 26 26 25 25 21 24 27 28 32 33 36 38 45 46 50 54 57 56 52 54 55 53 45 43 44 40 40 43 41 41 40 40 39 37 33 32 27 30 32 30
23 25 26 26 28 34 28 27 30 23 22 23 21 18 22 20 18 18 25 33 34 35 41 45 52 57 57 55 53 53 51 46 43 43 43 40 43 43 41 42 41 41 39 37 38 37 36 35 33
27 19 21 22 23 29 27 24 26 24 20 19 20 18 18 18 19 19 24 23 29 32 33 39 50 56 57 56 53 52 49 47 44 43 44 41 43 43 43 43 43 41 41 40 39 38 38 37 37
18 14 13 15 17 19 22 22 21 23 23 25 22 21 22 21 29 34 35 36 35 33 30 31 38 53 56 57 55 51 49 47 45 43 43 41 45 43 43 44 43 42 43 41 40 37 37 37 37
16 14 15 19 23 24 27 25 24 25 26 29 30 28 30 30 31 31 33 34 35 37 39 40 40 39 53 56 55 50 47 46 46 45 42 40 43 43 43 45 43 43 43 42 39 37 36 36 35
23 22 22 24 26 23 24 24 25 26 30 31 30 28 27 26 26 28 31 32 33 34 37 37 40 41 41 55 55 52 47 46 46 47 44 43 42 43 43 44 44 43 44 41 40 38 38 38 37
23 23 24 25 26 25 25 25 28 29 31 27 24 23 21 20 21 24 25 28 30 33 36 36 38 40 41 41 54 53 49 48 48 46 45 44 42 43 41 43 43 42 43 43 41 41 40 37 37
24 26 26 26 25 22 24 21 24 27 28 25 23 23 22 20 21 24 26 27 27 30 36 37 37 39 40 42 42 52 51 47 47 46 46 45 43 42 42 41 41 41 43 42 42 42 42 41 38
24 29 28 29 27 26 26 25 22 27 27 26 27 24 17 19 24 26 27 28 29 31 38 37 36 38 42 43 42 43 50 51 49 47 46 44 43 41 41 40 40 40 42 41 41 39 40 40 38
28 29 26 24 24 25 23 24 21 24 25 18 13 11 9 15 24 26 28 29 30 31 38 38 37 39 42 44 42 40 42 50 51 48 46 45 43 42 41 39 39 39 40 40 41 39 38 39 37
31 26 22 21 26 26 20 19 20 24 16 10 9 9 11 11 22 25 25 28 30 33 34 37 37 39 39 41 42 40 39 43 51 49 46 44 43 42 41 39 38 39 40 41 41 39 38 37 36
24 25 22 17 16 21 21 18 22 17 11 11 12 13 13 14 22 25 27 28 28 30 31 34 35 37 37 39 42 40 38 41 46 50 49 44 44 42 41 39 37 37 40 41 41 41 40 37 38
23 21 20 22 21 18 18 17 20 13 11 13 13 13 14 15 23 25 26 27 28 27 29 31 34 33 33 36 40 41 39 37 42 48 49 47 44 43 41 39 37 37 38 39 40 40 39 37 37
22 20 15 15 9 8 6 7 9 11 12 14 12 11 10 14 21 22 23 24 25 26 28 32 30 28 29 32 39 41 41 38 37 40 47 47 46 42 40 40 38 37 37 38 39 39 38 36 38
15 11 12 13 11 9 13 13 13 12 14 14 13 10 12 20 23 23 23 25 25 26 28 28 26 28 28 33 39 40 41 40 36 37 43 45 45 43 40 39 38 37 37 37 38 37 37 36 36
14 9 10 20 17 18 18 15 15 14 15 14 12 10 16 23 25 25 25 23 23 26 26 26 27 27 29 36 38 39 41 42 39 36 37 39 43 43 41 39 38 37 36 37 36 36 34 35 35
Lifted_Index
-1 -1 -2 -3 -4 -3 -2 -1 -0 0 1 2 2 3 3 3 2 0 0 1 1 0 -1 -2 -3 -3 -3 -3 -3 -2 -1 -0 -0 -0 -0 -1 -1 -1 -2 -2 -3 -4 -4 -5 -5 -5 -5 -5 -5
-0 -1 -2 -3 -3 -2 -1 -1 -0 0 1 2 2 3 4 4 2 1 0 1 1 0 -1 -2 -3 -3 -3 -3 -2 -2 -1 0 0 1 0 0 -0 -1 -1 -2 -2 -3 -3 -4 -5 -5 -5 -5 -5
0 -0 -1 -2 -2 -1 -1 -1 -0 1 1 2 3 3 4 4 3 1 0 1 1 0 -2 -3 -4 -3 -3 -3 -2 -1 -0 1 1 1 1 1 1 0 0 -0 -1 -1 -2 -3 -4 -4 -5 -5 -5
1 -0 -1 -1 -1 -1 -1 -0 0 1 1 2 3 3 4 4 3 1 0 1 1 -0 -2 -3 -4 -4 -3 -2 -1 -1 -0 0 1 1 1 1 1 2 1 1 1 0 -0 -1 -2 -3 -4 -5 -5
1 0 0 0 0 0 0 1 1 1 1 2 2 3 4 3 2 1 1 0 0 -1 -2 -3 -4 -3 -3 -2 -1 -0 -0 0 1 1 2 2 2 2 3 2 2 2 2 1 -0 -1 -2 -4 -4
2 1 1 2 2 2 2 2 2 2 2 2 2 3 4 3 2 1 1 1 0 -0 -1 -3 -3 -3 -2 -2 -1 -1 -0 0 1 2 2 2 2 3 3 4 4 3 3 3 2 1 -1 -2 -3
2 2 2 3 3 4 4 3 3 3 3 3 2 3 4 4 3 1 1 1 1 0 -0 -2 -3 -3 -2 -1 -1 -1 -0 1 1 2 2 3 3 4 4 4 5 5 5 5 4 3 2 0 -1
3 3 3 4 4 4 4 4 4 4 4 4 3 3 4 4 3 2 1 1 1 1 1 0 -1 -2 -1 -1 -1 -1 0 1 2 3 3 3 4 5 5 6 6 6 7 7 7 6 5 4 3
4 4 4 5 5 5 5 5 5 5 5 5 5 4 4 4 3 2 1 1 2 2 3 2 0 -1 -1 -0 -0 -0 1 2 3 4 4 5 5 6 6 7 7 8 9 9 10 10 9 8 7
5 5 5 6 6 6 5 6 6 6 6 6 6 6 5 5 3 2 1 2 2 3 3 3 1 -0 -0 0 1 1 2 3 5 6 6 6 7 7 8 9 9 10 11 11 12 13 12 11 10
5 5 6 6 6 6 6 6 6 6 6 6 7 7 6 5 4 3 2 2 2 3 3 3 2 1 1 1 1 2 3 5 6 8 9 9 9 9 10 10 11 11 12 12 13 14 14 14 13
5 6 6 6 6 6 6 6 6 6 6 6 7 7 7 6 5 3 2 2 2 2 2 2 2 2 1 1 2 3 4 6 8 10 11 10 10 10 11 11 12 12 12 12 13 14 15 15 15
6 6 6 6 6 7 6 6 6 6 6 7 7 7 7 7 6 5 3 2 2 2 2 2 2 2 2 2 2 3 4 6 8 10 12 11 11 12 12 12 12 12 12 12 12 13 15 15 16
6 6 6 6 6 7 6 6 6 6 7 7 7 7 7 7 7 6 5 4 3 3 2 2 2 2 2 2 3 3 5 6 8 10 12 12 12 12 12 12 12 13 12 12 12 13 14 15 15
6 5 5 5 6 7 6 5 5 7 7 7 7 7 7 7 7 7 6 6 5 4 3 2 2 1 1 2 3 3 4 6 8 10 12 12 12 12 12 12 12 13 13 12 12 12 13 14 15
5 5 5 5 6 7 6 5 5 7 8 8 8 8 8 8 8 8 7 7 6 6 5 3 2 1 1 2 3 4 4 6 8 10 11 12 12 12 12 13 13 13 13 13 12 12 12 13 14
4 4 5 5 6 7 7 5 6 7 8 8 8 8 8 8 8 8 8 8 8 7 6 5 4 2 1 1 2 3 4 6 7 9 10 11 12 12 13 13 13 13 13 13 12 12 11 12 13
5 5 5 5 6 8 7 6 6 7 8 8 8 8 8 8 8 8 8 8 8 8 7 7 5 3 2 1 2 3 4 5 7 9 10 11 12 12 13 13 13 13 13 13 13 12 11 12 12
6 5 5 6 7 8 7 6 6 6 7 7 8 8 8 8 9 9 8 8 8 8 8 7 6 5 3 2 1 2 4 5 7 8 10 11 11 12 13 13 13 13 13 13 13 12 12 12 12
6 6 5 6 7 7 6 5 6 6 7 7 8 8 8 8 9 9 9 9 8 8 8 8 7 6 5 3 2 1 3 4 6 8 9 10 11 12 12 13 13 12 12 13 13 13 12 11 12
6 6 5 5 5 6 5 4 5 6 7 8 9 9 9 9 10 10 10 10 10 10 9 9 8 8 7 5 3 2 2 3 5 6 7 9 10 11 12 12 12 12 12 13 13 13 12 11 11
6 6 6 5 4 4 4 3 4 6 7 8 9 10 10 11 12 12 12 12 12 12 11 10 10 9 8 7 6 4 3 3 4 5 6 8 9 10 11 11 11 11 12 12 12 12 12 11 11
6 7 7 5 4 3 3 3 4 5 6 7 9 11 12 13 14 14 13 13 13 12 11 11 11 10 9 8 7 6 5 4 3 4 5 7 8 9 10 10 11 11 11 12 12 12 12 11 11
8 7 5 4 3 3 3 4 4 4 6 8 10 12 14 15 14 14 13 13 12 12 11 11 10 9 8 8 7 7 6 5 4 4 5 6 8 9 9 10 10 10 11 12 12 13 12 11 11
8 6 3 2 1 2 3 4 3 4 6 9 12 13 14 14 14 14 13 13 12 12 11 10 9 9 8 7 6 7 7 6 5 4 4 6 7 8 9 9 9 10 11 12 12 13 12 12 11
7 6 4 2 2 2 3 3 4 5 8 10 12 12 13 13 13 13 13 13 12 12 11 10 9 9 8 7 6 6 6 6 5 4 4 5 7 8 9 9 9 10 11 12 12 13 12 12 12
8 7 6 5 3 2 3 4 4 5 7 9 9 10 11 11 11 12 12 12 12 12 11 10 9 9 9 7 6 6 6 7 6 5 4 5 6 8 9 9 9 10 11 12 12 12 12 12 12
9 8 8 7 4 2 3 4 5 6 7 7 8 9 10 11 11 11 11 11 12 11 10 10 9 9 8 7 6 5 6 6 7 6 5 5 6 8 9 9 9 10 11 11 11 11 11 11 11
10 9 9 8 5 4 3 5 7 8 9 9 10 11 11 12 11 11 10 10 9 8 7 7 6 5 5 4 4 4 4 5 6 7 7 6 7 8 9 9 9 10 10 11 11 11 10 11 11
10 10 9 8 6 6 5 5 8 10 11 11 11 12 12 12 11 10 8 7 6 5 4 4 3 2 2 2 2 3 3 4 6 7 7 7 7 8 9 9 9 10 10 10 10 10 10 10 10